User: anonymous
Location: Coleman
(45.0650°N, 88.0340°W)
Time: 09:45:34
(UTC-05:00)
Language:

Iridium 97 - Orbit

View from above orbital plane
View from above orbital plane
View from above satellite
View from above satellite

Ground track
Ground track

The orbit data is extracted from the following two-line orbital elements,

1 27450U 02031A   14113.44935091  .00000456  00000-0  15591-3 0  1709
2 27450 086.3960 079.9272 0004429 071.3209 288.8467 14.34206674625293
Epoch (UTC): 23 April 2014 10:47:03
Eccentricity: 0.0004429
inclination: 86.3960°
perigee height: 774 km
apogee height: 781 km
right ascension of ascending node: 79.9272°
argument of perigee: 71.3209°
revolutions per day: 14.34206674
mean anomaly at epoch: 288.8467°
orbit number at epoch: 62529

The dashed part of the orbit path shows where the satellite is in the earth's shadow,  

DLR